Location: Theydon Bois
(51.6750°N, 0.1050°E)
Time: 09:48:29
(UTC+01:00)

Daily predictions for brighter satellites

Satellite Brightness Start Highest point End
(mag) Time Altitude Azimuth Time Altitude Azimuth Time Altitude Azimuth
Meteor 1-19 Rocket 4.3 21:31:21 10° S 21:37:07 72° E 21:42:50 10° NNE
CENTAUR R/B 3.7 21:30:24 10° NW 21:37:54 54° WSW 21:45:58 10° SSE
Cosmos 1656 Rocket 4.4 21:33:04 10° NW 21:38:19 49° WSW 21:43:33 10° S
Cosmos 921 Rocket 4.1 21:36:53 10° N 21:41:04 36° ENE 21:45:11 10° SE
Cosmos 1536 Rocket 4.0 21:39:53 10° SSW 21:44:11 66° WNW 21:48:31 10° N
Cosmos 1606 Rocket 4.0 21:41:30 10° N 21:45:42 47° ENE 21:49:52 10° SSE
ATLAS CENTAUR R/B 4.0 21:44:59 10° NNW 21:46:45 13° N 21:48:29 10° NE
NOSS 3-4 (A) 4.2 21:40:50 10° WSW 21:47:09 65° NW 21:53:49 10° NE
NOSS 3-4 (C) 4.1 21:40:56 10° WSW 21:47:16 65° NW 21:53:56 10° NE
Cosmos 839 Rocket 4.4 21:41:02 10° NW 21:47:20 72° NE 21:54:40 10° SE
Meteor 1-15 Rocket 4.3 21:41:55 10° N 21:47:34 69° ENE 21:53:06 10° SSE
ISS -1.7 21:47:14 10° SE 21:47:35 10° SE 21:47:56 10° SE
MetOp-A 4.2 21:42:41 10° SSE 21:48:03 85° WSW 21:53:28 10° NNW
ERS-1 Rocket 3.4 21:43:40 10° S 21:48:39 65° WSW 21:53:40 10° NNW
Cosmos 1980 Rocket 3.9 21:44:09 10° NNW 21:48:46 25° NE 21:53:21 10° E
USA 245 2.3 21:46:51 10° SSE 21:49:28 60° ENE 21:51:48 10° N
Cosmos 1818 3.6 21:46:10 10° SW 21:51:37 80° SE 21:57:06 10° NE
Lacrosse 5 rocket 2.8 21:47:23 10° W 21:51:47 45° N 21:56:16 10° ENE
Cosmos 1943 Rocket 4.4 21:49:31 10° NW 21:53:25 20° W 21:57:17 10° SW
YAOGAN 11 4.1 21:49:10 10° SSE 21:53:27 89° WSW 21:57:50 10° NNW
NOSS 2-2 (C) 3.6 21:50:23 10° SSW 21:54:27 60° SE 21:59:20 10° NE
Meteor 1-29 4.3 21:52:29 10° N 21:55:45 43° WNW 21:58:57 10° SW
H-2A R/B 2.2 21:51:22 10° SSE 21:56:13 59° ENE 22:01:12 10° N
Cosmos 2322 Rocket 4.5 21:52:46 10° NNW 21:56:16 16° NNE 21:59:48 10° ENE
Cosmos 1726 Rocket 3.9 21:52:32 10° N 21:56:47 51° ENE 22:00:59 10° SSE
Nadezhda 1 Rocket 4.1 21:50:35 10° S 21:56:55 77° E 22:03:22 10° NNE
Cosmos 2154 Rocket 4.1 21:52:19 10° N 21:58:43 82° E 22:05:05 10° SSE
Cosmos 1437 4.2 21:56:06 10° SW 21:59:10 39° WNW 22:02:16 10° N
Cosmos 2112 Rocket 4.0 21:56:56 10° S 22:02:06 64° ESE 22:07:15 10° NNE
Cosmos 2058 Rocket 3.6 21:58:24 10° N 22:02:39 44° ENE 22:06:41 11° SE
USA 234 3.9 21:56:41 10° E 22:03:04 58° N 22:09:27 10° WNW
YAOGAN 6 4.4 22:01:26 10° SSW 22:04:27 27° W 22:07:30 10° NW
Cosmos 1624 Rocket 4.1 21:59:24 10° NNW 22:04:43 86° ENE 22:09:56 10° SSE
Cosmos 192 4.4 22:02:03 10° S 22:06:52 58° ESE 22:11:41 10° NNE
RESURS DK-1 4.1 22:03:41 10° WSW 22:07:35 38° NW 22:11:30 10° NNE
Cosmos 405 Rocket 3.6 22:05:33 10° SSW 22:09:13 51° WNW 22:13:00 10° N
Meteor 1-4 Rocket 4.0 22:07:14 10° N 22:10:21 25° ENE 22:13:05 12° ESE
Cosmos 1515 4.4 22:08:10 11° SSE 22:11:35 37° E 22:15:08 10° NNE
CARTOSAT-1 4.2 22:08:08 11° SE 22:11:57 43° ENE 22:16:03 10° N
SeaSat 1 4.3 22:09:23 10° E 22:13:12 23° NE 22:17:03 10° NNW
COSMOS 2406 3.2 22:07:38 10° SSW 22:13:22 86° ESE 22:19:07 10° NNE
Cosmos 1025 Rocket 2.9 22:09:37 10° S 22:13:54 79° E 22:18:10 10° NNE
ARGOS 3.5 22:09:50 10° S 22:15:14 69° WSW 22:20:40 10° NNW
Cosmos 2278 3.8 22:12:08 10° NNW 22:17:54 77° ENE 22:23:00 13° SE
Cosmos 1441 Rocket 3.5 22:18:27 10° SSW 22:22:10 67° WNW 22:25:56 10° N
Cosmos 2056 Rocket 3.6 22:18:12 10° NNW 22:23:26 75° WSW 22:28:07 12° SSE
SL-08 RB Rocket 4.0 22:20:35 10° S 22:25:01 63° WSW 22:29:30 10° NNW
Cosmos 1680 Rocket 3.7 22:20:33 10° SSW 22:25:47 76° WNW 22:31:03 10° NNE
Cosmos 2082 Rocket 3.4 22:22:42 13° SE 22:26:13 23° ESE 22:30:32 10° NE
Cosmos 2341 Rocket 4.1 22:20:06 10° N 22:26:28 87° W 22:32:51 10° S
Landsat 7 3.8 22:25:02 13° SSE 22:29:21 85° ENE 22:34:09 10° NNW
SPOT 5 3.4 22:25:56 10° S 22:30:06 46° W 22:34:19 10° NNW
PSLV R/B 3.9 22:29:12 18° SE 22:30:52 34° ENE 22:33:28 10° N
Cosmos 2369 3.8 22:30:39 10° NNW 22:36:25 83° WSW 22:41:09 16° SSE
H-2A R/B 2.2 22:33:27 15° SSE 22:37:08 73° ENE 22:41:41 10° NNW
SL-27 R/B 3.0 22:36:52 10° SW 22:40:29 62° WNW 22:44:08 10° NNE
CZ-4C R/B 4.3 22:38:48 15° ESE 22:41:03 30° ENE 22:44:15 10° N
TELKOM 3 4.3 22:39:36 10° W 22:41:52 31° SSW 22:43:13 21° SSE
NOSS 2-2 (E) 4.3 22:38:57 10° WSW 22:43:12 62° NW 22:48:31 10° NE
Cosmos 2218 Rocket 4.0 22:37:02 10° N 22:43:12 71° ENE 22:48:15 16° SSE
Terra 1.8 22:40:33 16° SSE 22:44:24 84° ENE 22:49:12 10° NNW
Iridium 43 3.4 22:42:20 10° N 22:44:36 73° W 22:45:42 25° S
Cosmos 1420 Rocket 4.4 22:39:44 10° NNW 22:44:58 56° ENE 22:49:00 16° SE
SL-16 R/B 4.0 22:41:38 10° NNW 22:46:18 25° NE 22:50:57 10° E
Cosmos 1697 Rocket 2.8 22:41:11 10° NNW 22:46:49 69° ENE 22:51:13 17° SE
SPOT 1/Viking Rocket 4.2 22:42:26 10° S 22:47:27 50° W 22:52:29 10° NNW
Cosmos 1626 Rocket 4.3 22:46:01 18° SSE 22:48:35 35° E 22:52:32 10° NNE
Aureole 1 Rocket 3.6 22:47:37 10° SW 22:50:35 38° WNW 22:53:25 10° N
Spot 4 4.1 22:47:55 18° SE 22:51:25 57° ENE 22:56:09 10° N
SME Rocket 4.4 22:51:45 14° ESE 22:55:36 33° ENE 22:59:18 10° N
Cosmos 1452 Rocket 3.5 22:50:25 10° NNW 22:55:43 89° WSW 22:59:34 19° SSE
Cosmos 1437 Rocket 4.4 22:56:11 10° NW 22:59:26 27° W 23:02:43 10° SSW
Cosmos 2181 Rocket 4.2 22:59:18 10° SSW 23:05:42 79° W 23:12:02 10° N
Cosmos 1953 3.8 23:02:15 10° N 23:05:43 26° ENE 23:08:00 16° ESE
USA 267 4.0 23:02:09 10° ENE 23:07:46 30° SE 23:12:13 15° S
COSMOS 2487 2.6 23:05:48 22° S 23:07:54 56° ESE 23:11:26 10° NNE
Cosmos 1656 3.8 23:02:47 10° NW 23:08:12 67° WSW 23:11:59 20° SSE
SL-19 R/B 4.1 23:03:46 10° NNE 23:09:15 70° ESE 23:13:30 16° S
IGS 5A 3.8 23:07:17 18° S 23:10:11 58° WSW 23:14:20 10° NNW
Cosmos 1833 Rocket 3.1 23:06:29 18° S 23:10:15 43° ESE 23:15:33 10° NE
DELTA 2 DEB (DPAF) 4.2 23:08:23 22° SSE 23:11:15 75° ENE 23:15:45 10° NNW
Cosmos 2228 3.8 23:08:53 10° NNW 23:13:02 46° W 23:16:16 15° SSW
Cosmos 1066 Rocket 4.2 23:09:25 15° S 23:13:58 79° E 23:19:39 10° NNE
Cosmos 1892 Rocket 4.3 23:10:32 10° SSW 23:14:53 53° WNW 23:19:14 10° N
deb Chang Zheng 4 3.5 23:11:58 10° NNE 23:16:20 80° ESE 23:19:25 19° S
Cosmos 1271 Rocket 3.0 23:14:15 10° N 23:18:03 57° ENE 23:20:02 26° SE
Iridium 2 3.9 23:14:36 10° N 23:18:24 57° E 23:20:13 27° SSE
Meteor 2-14 Rocket 4.4 23:12:32 10° N 23:18:40 87° E 23:22:57 21° S
Cosmos 921 Rocket 4.4 23:15:18 10° NW 23:19:19 33° W 23:22:27 15° SSW
Cosmos 1602 Rocket 3.5 23:19:15 23° S 23:21:55 70° E 23:26:14 10° NNE
ISS -3.4 23:20:17 10° SW 23:23:24 40° SSE 23:26:31 10° E
CZ-4 R/B 3.9 23:20:13 10° NNE 23:25:16 78° ESE 23:28:54 19° S
ATLAS CENTAUR R/B 2.9 23:23:40 10° NNW 23:26:57 27° NNE 23:30:08 10° E
Cosmos 2360 Rocket 4.1 23:27:06 10° NNW 23:31:41 24° NE 23:36:13 10° E
Lacrosse 5 rocket 2.5 23:27:12 10° WNW 23:31:44 50° NNE 23:36:15 10° E
Cosmos 1821 Rocket 4.4 23:26:04 10° N 23:32:11 53° ENE 23:36:19 21° SE
Cosmos 1980 Rocket 2.2 23:27:51 10° NNW 23:33:35 89° ENE 23:37:10 24° SSE
USA 229 DEB 3.8 23:27:25 10° NW 23:34:33 85° SW 23:39:57 20° SE
USA 229 3.8 23:27:31 10° NW 23:34:39 86° SW 23:40:04 20° SE
H-2A R/B 3.8 23:32:10 10° SW 23:36:03 23° W 23:40:02 10° NW
Cosmos 1766 3.4 23:33:02 10° NNW 23:36:57 66° W 23:38:54 28° S
Meteor 2-16 Rocket 4.5 23:32:02 10° NNW 23:38:11 79° W 23:42:18 22° S
Cosmos-2242 4.4 23:35:51 10° N 23:39:41 29° ENE 23:41:59 18° ESE
NOSS 3-1 (A) 4.5 23:33:57 10° NW 23:41:01 58° NE 23:49:00 10° ESE
Cosmos 2322 Rocket 3.0 23:36:17 10° NNW 23:41:49 47° NE 23:46:20 15° ESE
Cosmos 1758 3.4 23:40:44 10° N 23:44:45 68° ENE 23:46:29 32° SSE
Meteor 1-4 Rocket 4.1 23:42:20 10° NNW 23:45:31 28° W 23:47:24 18° SW
USA 234 3.3 23:39:17 10° ESE 23:45:53 86° NNE 23:52:27 10° WNW
SeaSat 1 2.4 23:47:19 25° SSE 23:50:13 89° ENE 23:55:12 10° NNW
Cosmos 1470 3.5 23:50:43 10° N 23:54:34 43° ENE 23:56:15 27° SE
